Location: Austin
(30.3000°N, 97.7500°W)
Time: 02:07:28
(UTC-05:00)

Cosmos 1513 Rocket - Pass Details

Date: 15 May 2024
Orbit: 939 x 1008 km, 82.9° (Epoch: 19 May)

Event Time Altitude Azimuth Distance (km) Brightness Sun altitude
Rises 22:01:39 0° 357° (N) 3,704 8.1 -20.0°
Reaches altitude 10° 22:04:11 10° 0° (N) 2,761 7.4 -20.4°
Maximum altitude 22:10:31 69° 84° (E) 1,066 4.5 -21.5°
Enters shadow 22:13:05 38° 155° (SSE) 1,488 5.0 -21.9°
